Hourly Data Report for April 13, 1979

WINDSOR A
ONTARIO

42°16'32.000" N
82°57'20.000" W
189.60 m
6139525
71538
YQG

Download Data

Hourly Data (April 1979)
Hourly Data Report for April 13, 1979
TIME
LST
Temp Definition
°C
Dew Point Definition
°C
Rel Hum Definition
%
Precip. Amount Definition
mm

Wind Dir Definition
10's deg

Wind Spd Definition
km/h
Visibility Definition
km
Stn Press Definition
kPa
Hmdx Definition


Wind Chill Definition


Weather Definition


00:00 6.3 4.9 91   12 13 11.3 98.86     Cloudy
01:00 6.2 5.0 92   10 13 8.0 98.83     Fog,Haze
02:00 6.1 5.0 93   7 4 8.0 98.83     Fog,Haze
03:00 6.3 5.4 94   11 11 8.0 98.76     Fog,Haze
04:00 6.8 5.9 94   13 11 8.0 98.73     Fog,Haze
05:00 6.9 5.9 93   13 24 8.0 98.70     Fog,Haze
06:00 7.1 6.4 95   14 19 3.2 98.73     Fog
07:00 7.7 7.1 96   15 9 3.2 98.76     Rain Showers, Fog
08:00 9.3 8.6 96   15 6 4.0 98.76     Drizzle, Fog
09:00 9.8 9.2 96   11 9 4.0 98.73     Fog
10:00 11.9 11.0 94   16 9 6.4 98.66     Fog
11:00 13.1 12.3 95   17 11 8.0 98.70     Rain Showers, Fog
12:00 12.7 12.4 98   17 11 3.2 98.63     Heavy Rain Showers, Fog
13:00 13.1 12.9 99   12 7 1.6 98.60     Moderate Rain Showers, Fog
14:00 13.5 13.4 99   13 17 2.4 98.56     Rain Showers, Fog
15:00 12.8 12.6 99   11 17 1.6 98.53     Rain, Fog
16:00 12.5 12.3 99   10 4 3.6 98.43     Moderate Rain, Fog
17:00 12.6 12.6 100   11 13 4.0 98.33     Rain, Fog
18:00 12.1 11.8 98   11 19 2.0 98.27     Moderate Rain, Fog
19:00 11.7 11.3 97   11 9 1.6 98.23     Moderate Rain, Fog
20:00 9.8 9.6 99   12 20 2.8 98.23     Moderate Rain, Fog
21:00 8.9 8.5 97   12 7 2.8 98.23     Moderate Rain, Fog
22:00 8.9 7.4 90   33 30 6.4 98.27     Moderate Rain, Fog
23:00 7.7 5.8 87   31 28 8.0 98.37     Moderate Rain, Fog

Notes on Data Quality.

Legend

  • E = Estimated
  • M = Missing
  • NA = Not Available*
  • [empty] = Indicates an unobserved value
Date modified: